Location: Karcze
(52.0945°N, 22.4786°E)
Time: 11:59:53
(UTC+00:00)

Cosmos 1500 - Pass Details

Date: 14 July 2020
Orbit: 498 x 520 km, 82.5° (Epoch: 08 August)

Event Time Altitude Azimuth Distance (km) Brightness Sun altitude
Exits shadow 00:58:20 14° 218° (SW) 1,483 4.8 -10.0°
Maximum altitude 01:01:18 42° 286° (WNW) 744 3.8 -9.7°
Drops below altitude 10° 01:04:55 10° 359° (N) 1,736 6.8 -9.4°
Sets 01:07:08 0° 6° (N) 2,623 8.0 -9.2°
